TimeCST,TemperatureF,Dew PointF,Humidity,Sea Level PressureIn,VisibilityMPH,Wind Direction,Wind SpeedMPH,Gust SpeedMPH,PrecipitationIn,Events,Conditions,WindDirDegrees,DateUTC
12:15 AM,53.6,51.8,94,29.75,1.2,SE,17.3,20.7,N/A,Rain,Light Rain,140,2013-02-10 06:15:00
12:35 AM,53.6,53.6,100,29.74,1.5,SE,15.0,23.0,N/A,Rain,Light Rain,140,2013-02-10 06:35:00
12:55 AM,53.6,53.6,100,29.71,1.5,SE,17.3,-,N/A,Rain,Light Rain,140,2013-02-10 06:55:00
1:15 AM,53.6,53.6,100,29.70,1.5,SSE,16.1,-,N/A,,Overcast,150,2013-02-10 07:15:00
1:35 AM,53.6,53.6,100,29.70,1.5,SSE,15.0,-,N/A,,Light Drizzle,150,2013-02-10 07:35:00
1:55 AM,55.4,53.6,94,29.74,1.8,South,8.1,-,N/A,Thunderstorm,Drizzle,180,2013-02-10 07:55:00
2:15 AM,55.4,53.6,94,29.72,1.8,SSE,10.4,-,0.06,Rain-Thunderstorm,Rain,160,2013-02-10 08:15:00
2:35 AM,55.4,53.6,94,29.70,1.8,SE,8.1,-,0.15,Rain-Thunderstorm,Heavy Thunderstorms and Rain,140,2013-02-10 08:35:00
2:55 AM,55.4,53.6,94,29.69,2.0,SE,5.8,-,0.29,Rain-Thunderstorm,Heavy Thunderstorms and Rain,140,2013-02-10 08:55:00
3:15 AM,55.4,53.6,94,29.68,1.8,ENE,4.6,-,0.12,Rain-Thunderstorm,Heavy Thunderstorms and Rain,60,2013-02-10 09:15:00
3:35 AM,55.4,53.6,94,29.68,2.0,NE,5.8,-,0.26,Rain-Thunderstorm,Heavy Thunderstorms and Rain,40,2013-02-10 09:35:00
3:55 AM,55.4,53.6,94,29.67,2.5,East,5.8,-,0.35,Rain-Thunderstorm,Rain,100,2013-02-10 09:55:00
4:15 AM,55.4,53.6,94,29.70,7.0,South,4.6,-,0.01,Rain,Light Rain,180,2013-02-10 10:15:00
4:35 AM,55.4,55.4,100,29.71,7.0,SW,4.6,-,0.01,,Overcast,220,2013-02-10 10:35:00
4:55 AM,55.4,55.4,100,29.72,10.0,WSW,8.1,-,0.01,,Overcast,240,2013-02-10 10:55:00
5:15 AM,57.2,55.4,94,29.73,10.0,West,11.5,16.1,N/A,,Overcast,260,2013-02-10 11:15:00
5:35 AM,55.4,51.8,88,29.74,10.0,West,11.5,18.4,N/A,,Overcast,270,2013-02-10 11:35:00
5:55 AM,55.4,46.4,72,29.75,10.0,West,12.7,17.3,N/A,,Overcast,280,2013-02-10 11:55:00
6:15 AM,53.6,39.2,58,29.76,10.0,WNW,10.4,16.1,N/A,,Overcast,290,2013-02-10 12:15:00
6:35 AM,53.6,37.4,54,29.77,10.0,West,10.4,-,N/A,,Overcast,280,2013-02-10 12:35:00
6:55 AM,51.8,37.4,58,29.77,10.0,West,9.2,-,N/A,,Overcast,270,2013-02-10 12:55:00
7:15 AM,51.8,37.4,58,29.78,10.0,West,8.1,-,N/A,,Overcast,270,2013-02-10 13:15:00
7:35 AM,51.8,37.4,58,29.79,10.0,West,8.1,-,N/A,,Mostly Cloudy,260,2013-02-10 13:35:00
7:55 AM,51.8,35.6,54,29.79,10.0,WSW,6.9,-,N/A,,Scattered Clouds,250,2013-02-10 13:55:00
8:15 AM,51.8,35.6,54,29.80,10.0,WSW,6.9,-,N/A,,Clear,250,2013-02-10 14:15:00
8:35 AM,51.8,37.4,58,29.80,10.0,West,9.2,-,N/A,,Clear,260,2013-02-10 14:35:00
8:55 AM,53.6,35.6,51,29.80,10.0,West,10.4,-,N/A,,Clear,270,2013-02-10 14:55:00
9:15 AM,55.4,33.8,44,29.81,10.0,West,12.7,21.9,N/A,,Clear,270,2013-02-10 15:15:00
9:35 AM,55.4,32.0,41,29.82,10.0,West,15.0,18.4,N/A,,Clear,270,2013-02-10 15:35:00
9:55 AM,55.4,30.2,38,29.83,10.0,West,17.3,24.2,N/A,,Clear,270,2013-02-10 15:55:00
10:15 AM,57.2,30.2,36,29.84,10.0,West,19.6,-,N/A,,Clear,270,2013-02-10 16:15:00
10:35 AM,57.2,28.4,33,29.84,10.0,West,13.8,20.7,N/A,,Clear,280,2013-02-10 16:35:00
10:55 AM,59.0,30.2,34,29.85,10.0,West,12.7,20.7,N/A,,Clear,270,2013-02-10 16:55:00
11:15 AM,59.0,28.4,31,29.85,10.0,West,11.5,17.3,N/A,,Clear,270,2013-02-10 17:15:00
11:35 AM,59.0,30.2,34,29.85,10.0,West,11.5,-,N/A,,Clear,260,2013-02-10 17:35:00
11:55 AM,59.0,30.2,34,29.85,10.0,West,10.4,17.3,N/A,,Clear,260,2013-02-10 17:55:00
12:15 PM,60.8,30.2,31,29.84,10.0,West,13.8,-,N/A,,Clear,260,2013-02-10 18:15:00
12:35 PM,60.8,30.2,31,29.84,10.0,WSW,10.4,19.6,N/A,,Clear,250,2013-02-10 18:35:00
12:55 PM,60.8,30.2,31,29.83,10.0,WSW,12.7,17.3,N/A,,Clear,250,2013-02-10 18:55:00
1:15 PM,62.6,30.2,30,29.83,10.0,WSW,13.8,18.4,N/A,,Clear,250,2013-02-10 19:15:00
1:35 PM,62.6,30.2,30,29.82,10.0,West,12.7,21.9,N/A,,Clear,270,2013-02-10 19:35:00
1:55 PM,62.6,28.4,27,29.82,10.0,WSW,11.5,-,N/A,,Clear,250,2013-02-10 19:55:00
2:15 PM,62.6,30.2,30,29.83,10.0,West,13.8,18.4,N/A,,Clear,260,2013-02-10 20:15:00
2:35 PM,62.6,28.4,27,29.83,10.0,WSW,10.4,18.4,N/A,,Clear,250,2013-02-10 20:35:00
2:55 PM,62.6,28.4,27,29.83,10.0,West,12.7,20.7,N/A,,Clear,270,2013-02-10 20:55:00
3:15 PM,62.6,28.4,27,29.84,10.0,West,13.8,18.4,N/A,,Clear,260,2013-02-10 21:15:00
3:35 PM,62.6,26.6,26,29.84,10.0,West,12.7,-,N/A,,Clear,260,2013-02-10 21:35:00
3:55 PM,62.6,28.4,27,29.84,10.0,WSW,6.9,-,N/A,,Clear,250,2013-02-10 21:55:00
4:15 PM,62.6,28.4,27,29.84,10.0,West,9.2,-,N/A,,Clear,270,2013-02-10 22:15:00
4:35 PM,64.4,28.4,26,29.85,10.0,West,9.2,-,N/A,,Clear,270,2013-02-10 22:35:00
4:55 PM,62.6,28.4,27,29.86,10.0,West,5.8,-,N/A,,Clear,260,2013-02-10 22:55:00
5:15 PM,62.6,28.4,27,29.87,10.0,West,8.1,-,N/A,,Clear,260,2013-02-10 23:15:00
5:35 PM,60.8,28.4,29,29.88,10.0,WNW,5.8,-,N/A,,Clear,290,2013-02-10 23:35:00
5:55 PM,60.8,28.4,29,29.88,10.0,WNW,4.6,-,N/A,,Clear,290,2013-02-10 23:55:00
6:15 PM,59.0,28.4,31,29.89,10.0,NW,4.6,-,N/A,,Clear,310,2013-02-11 00:15:00
6:35 PM,55.4,28.4,36,29.90,10.0,WNW,3.5,-,N/A,,Clear,290,2013-02-11 00:35:00
6:55 PM,55.4,28.4,36,29.92,10.0,WNW,4.6,-,N/A,,Clear,290,2013-02-11 00:55:00
7:15 PM,55.4,26.6,33,29.93,10.0,WNW,6.9,-,N/A,,Clear,300,2013-02-11 01:15:00
7:35 PM,55.4,26.6,33,29.94,10.0,WNW,8.1,-,N/A,,Clear,290,2013-02-11 01:35:00
7:55 PM,55.4,26.6,33,29.95,10.0,WNW,4.6,-,N/A,,Clear,300,2013-02-11 01:55:00
8:15 PM,55.4,26.6,33,29.96,10.0,West,4.6,-,N/A,,Clear,280,2013-02-11 02:15:00
8:35 PM,53.6,26.6,35,29.98,10.0,WNW,5.8,-,N/A,,Clear,290,2013-02-11 02:35:00
8:55 PM,51.8,28.4,41,29.99,10.0,West,3.5,-,N/A,,Clear,270,2013-02-11 02:55:00
9:15 PM,53.6,26.6,35,30.00,10.0,WNW,5.8,-,N/A,,Clear,300,2013-02-11 03:15:00
9:35 PM,53.6,26.6,35,30.00,10.0,NW,3.5,-,N/A,,Clear,310,2013-02-11 03:35:00
9:55 PM,50.0,28.4,43,30.00,10.0,Calm,Calm,-,N/A,,Clear,0,2013-02-11 03:55:00
10:15 PM,46.4,30.2,53,30.01,10.0,NNW,6.9,-,N/A,,Clear,330,2013-02-11 04:15:00
10:35 PM,46.4,30.2,53,30.01,10.0,North,4.6,-,N/A,,Clear,350,2013-02-11 04:35:00
10:55 PM,44.6,32.0,61,30.02,10.0,North,11.5,-,N/A,,Clear,10,2013-02-11 04:55:00
11:15 PM,46.4,32.0,57,30.02,10.0,NNE,11.5,-,N/A,,Clear,20,2013-02-11 05:15:00
11:35 PM,46.4,32.0,57,30.03,10.0,NNE,10.4,-,N/A,,Clear,20,2013-02-11 05:35:00
11:55 PM,46.4,32.0,57,30.04,10.0,NNE,10.4,-,N/A,,Clear,20,2013-02-11 05:55:00